| time (UTC) | temp C | wind direction | speed KPH | gust KPH | rain 1hr cm | rain 24hr cm | rain mn cm | humidity % | barometer mb |
| 20260506073050 | 22 | 172 | 0.0 | 1.6 | 0.00 | 0.00 | 0.00 | 55 | 1007.4 |
| 20260506071600 | 21 | 211 | 0.0 | 4.8 | 0.00 | 0.00 | 0.00 | 57 | 1007.7 |
| 20260506061534 | 18 | 129 | 0.0 | 1.6 | 0.00 | 0.00 | 0.00 | 67 | 1008.0 |
| 20260506044524 | 14 | 236 | 0.0 | 0.0 | 0.00 | 0.00 | 0.00 | 82 | 1008.0 |
| 20260506043020 | 14 | 242 | 0.0 | 3.2 | 0.00 | 0.00 | 0.00 | 82 | 1007.9 |
| 20260506041525 | 13 | 360 | 0.0 | 3.2 | 0.00 | 0.00 | 0.00 | 83 | 1007.9 |
| 20260506040012 | 13 | 310 | 0.0 | 1.6 | 0.00 | 0.00 | 0.00 | 82 | 1007.7 |
| 20260506034509 | 13 | 340 | 0.0 | 0.0 | 0.00 | 0.00 | 0.00 | 82 | 1007.4 |
| 20260506033007 | 14 | 340 | 0.0 | 3.2 | 0.00 | 0.00 | 0.00 | 81 | 1007.2 |
| 20260506031512 | 14 | 329 | 0.0 | 3.2 | 0.00 | 0.00 | 0.00 | 79 | 1007.2 |
| 20260506030007 | 15 | 334 | 0.0 | 0.0 | 0.00 | 0.00 | 0.00 | 79 | 1007.4 |
| 20260506024502 | 15 | 334 | 0.0 | 0.0 | 0.00 | 0.00 | 0.00 | 78 | 1007.5 |
| 20260506023002 | 15 | 333 | 0.0 | 1.6 | 0.00 | 0.00 | 0.00 | 78 | 1007.3 |
| 20260506021600 | 15 | 297 | 0.0 | 1.6 | 0.00 | 0.00 | 0.00 | 77 | 1007.3 |
| 20260506020059 | 15 | 286 | 0.0 | 1.6 | 0.00 | 0.00 | 0.00 | 77 | 1007.3 |
| 20260506014559 | 15 | 227 | 0.0 | 0.0 | 0.00 | 0.00 | 0.00 | 76 | 1007.3 |
| 20260506013057 | 15 | 227 | 0.0 | 0.0 | 0.00 | 0.00 | 0.00 | 76 | 1007.1 |
| 20260506011555 | 15 | 227 | 0.0 | 1.6 | 0.00 | 0.00 | 0.00 | 77 | 1007.0 |
| 20260506010053 | 15 | 360 | 0.0 | 0.0 | 0.00 | 0.00 | 0.00 | 75 | 1006.8 |
| 20260506004555 | 15 | 360 | 0.0 | 0.0 | 0.00 | 0.00 | 0.00 | 75 | 1006.8 |
| 20260506003049 | 15 | 360 | 0.0 | 0.0 | 0.00 | 0.00 | 0.00 | 73 | 1006.8 |
| 20260506001607 | 16 | 360 | 0.0 | 0.0 | 0.00 | 0.00 | 0.00 | 72 | 1006.5 |
| 20260506000047 | 16 | 360 | 0.0 | 0.0 | 0.00 | 0.00 | 0.00 | 70 | 1006.2 |
| 20260505234547 | 16 | 360 | 0.0 | 0.0 | 0.00 | 0.00 | 0.00 | 69 | 1006.0 |
| 20260505233037 | 16 | 5 | 0.0 | 0.0 | 0.00 | 0.00 | 0.00 | 67 | 1005.8 |
| 20260505231541 | 17 | 5 | 0.0 | 0.0 | 0.00 | 0.00 | 0.00 | 65 | 1005.7 |
| 20260505230036 | 17 | 5 | 0.0 | 0.0 | 0.00 | 0.00 | 0.00 | 63 | 1005.7 |
| 20260505224536 | 17 | 5 | 0.0 | 0.0 | 0.00 | 0.00 | 0.00 | 62 | 1005.4 |
| 20260505223033 | 18 | 5 | 0.0 | 0.0 | 0.00 | 0.00 | 0.00 | 59 | 1005.1 |
| 20260505221520 | 18 | 5 | 0.0 | 0.0 | 0.00 | 0.00 | 0.00 | 57 | 1004.9 |
| 20260505220027 | 19 | 320 | 0.0 | 0.0 | 0.00 | 0.00 | 0.00 | 55 | 1004.6 |
| 20260505214524 | 20 | 320 | 0.0 | 0.0 | 0.00 | 0.00 | 0.00 | 53 | 1004.4 |
| 20260505213018 | 20 | 320 | 1.6 | 4.8 | 0.00 | 0.00 | 0.00 | 53 | 1004.3 |
| 20260505211514 | 20 | 13 | 0.0 | 3.2 | 0.00 | 0.00 | 0.00 | 53 | 1004.2 |
| 20260505210015 | 20 | 331 | 0.0 | 4.8 | 0.00 | 0.00 | 0.00 | 52 | 1003.9 |
| 20260505204523 | 19 | 339 | 0.0 | 12.9 | 0.00 | 0.00 | 0.00 | 54 | 1003.8 |
| 20260505203013 | 18 | 355 | 0.0 | 1.6 | 0.00 | 0.00 | 0.00 | 56 | 1003.6 |
| 20260505201516 | 18 | 61 | 0.0 | 0.0 | 0.00 | 0.00 | 0.00 | 56 | 1003.4 |
| 20260505200012 | 18 | 61 | 0.0 | 0.0 | 0.00 | 0.00 | 0.00 | 55 | 1003.0 |
| 20260505194511 | 19 | 63 | 0.0 | 0.0 | 0.00 | 0.00 | 0.00 | 54 | 1003.0 |
| 20260505193032 | 20 | 63 | 0.0 | 0.0 | 0.00 | 0.00 | 0.00 | 52 | 1002.8 |
| 20260505191511 | 20 | 86 | 0.0 | 1.6 | 0.00 | 0.00 | 0.00 | 51 | 1002.7 |
| 20260505190026 | 21 | 90 | 0.0 | 1.6 | 0.00 | 0.00 | 0.00 | 48 | 1002.6 |
| 20260505184510 | 21 | 92 | 0.0 | 4.8 | 0.00 | 0.00 | 0.00 | 45 | 1002.5 |
| 20260505183016 | 22 | 69 | 0.0 | 3.2 | 0.00 | 0.00 | 0.00 | 42 | 1002.3 |
| 20260505181515 | 23 | 239 | 0.0 | 0.0 | 0.00 | 0.00 | 0.00 | 39 | 1002.2 |
| 20260505180010 | 23 | 239 | 0.0 | 0.0 | 0.00 | 0.00 | 0.00 | 38 | 1002.2 |
| 20260505174508 | 24 | 239 | 0.0 | 0.0 | 0.00 | 0.00 | 0.00 | 36 | 1002.2 |
| 20260505173008 | 25 | 238 | 0.0 | 4.8 | 0.00 | 0.00 | 0.00 | 34 | 1002.1 |
| 20260505171521 | 25 | 236 | 0.0 | 4.8 | 0.00 | 0.00 | 0.00 | 33 | 1001.9 |
| 20260505170012 | 26 | 333 | 0.0 | 6.4 | 0.00 | 0.00 | 0.00 | 32 | 1001.9 |
| 20260505164509 | 26 | 245 | 0.0 | 9.7 | 0.00 | 0.00 | 0.00 | 31 | 1001.9 |
| 20260505163006 | 27 | 223 | 0.0 | 9.7 | 0.00 | 0.00 | 0.00 | 30 | 1001.9 |
| 20260505161505 | 28 | 269 | 4.8 | 14.5 | 0.00 | 0.00 | 0.00 | 28 | 1002.0 |
| 20260505153002 | 28 | 336 | 0.0 | 1.6 | 0.00 | 0.00 | 0.00 | 26 | 1002.1 |
| 20260505151559 | 28 | 336 | 0.0 | 3.2 | 0.00 | 0.00 | 0.00 | 26 | 1002.3 |
| 20260505150115 | 28 | 71 | 0.0 | 6.4 | 0.00 | 0.00 | 0.00 | 27 | 1002.5 |
| 20260505124533 | 27 | 101 | 1.6 | 9.7 | 0.00 | 0.00 | 0.00 | 34 | 1004.9 |
| 20260505123046 | 26 | 115 | 1.6 | 6.4 | 0.00 | 0.00 | 0.00 | 32 | 1005.1 |
| 20260505121533 | 26 | 132 | 0.0 | 6.4 | 0.00 | 0.00 | 0.00 | 36 | 1005.4 |
| 20260505120036 | 26 | 72 | 0.0 | 8.0 | 0.00 | 0.00 | 0.00 | 39 | 1005.6 |
| 20260505114527 | 26 | 119 | 0.0 | 6.4 | 0.00 | 0.00 | 0.00 | 40 | 1005.8 |
| 20260505113019 | 25 | 63 | 1.6 | 6.4 | 0.00 | 0.00 | 0.00 | 41 | 1006.1 |
| 20260505111519 | 25 | 96 | 0.0 | 9.7 | 0.00 | 0.00 | 0.00 | 40 | 1006.2 |
| 20260505101507 | 23 | 88 | 0.0 | 8.0 | 0.00 | 0.00 | 0.00 | 44 | 1007.0 |
| 20260505100002 | 23 | 214 | 1.6 | 8.0 | 0.00 | 0.00 | 0.00 | 46 | 1007.1 |
| 20260505094607 | 22 | 96 | 0.0 | 8.0 | 0.00 | 0.00 | 0.00 | 46 | 1007.5 |
| 20260505093056 | 22 | 134 | 0.0 | 11.3 | 0.00 | 0.00 | 0.00 | 46 | 1007.6 |
| 20260505091552 | 21 | 161 | 0.0 | 6.4 | 0.00 | 0.00 | 0.00 | 48 | 1007.7 |
| 20260505090058 | 21 | 121 | 0.0 | 6.4 | 0.00 | 0.00 | 0.00 | 48 | 1007.9 |
| 20260505084544 | 21 | 125 | 1.6 | 6.4 | 0.00 | 0.00 | 0.00 | 48 | 1007.9 |
| 20260505083042 | 21 | 69 | 0.0 | 4.8 | 0.00 | 0.00 | 0.00 | 48 | 1007.9 |
| 20260505081544 | 20 | 69 | 0.0 | 4.8 | 0.00 | 0.00 | 0.00 | 49 | 1008.2 |